COSMOS 2251 DEB, 33826

Orbit data source: Space-Track

COSMOS 2251 DEB, 33826 is space debris in LEO originally from a launch on Wed, 16 Jun 1993 UTC launched from the Plesetsk Missile And Space Complex (PKMTR). The debris from Iridium 33, an American commercial communications satellite, has been tracked extensively since its accidental collision with the defunct Russian satellite Cosmos 2251 in 2009. This event, occurring at high speed in low Earth orbit (LEO), generated thousands of pieces of space debris, significantly increasing the risk of further collisions. The Iridium 33 debris cloud has impacted space traffic management and orbital debris mitigation strategies, making it a subject of ongoing study in space situational awareness.

Loading next visibility...
Identifier
33826, 1993-036BT
Orbit
LEO
Country
Flag of CISCIS
Related business
Manufacturer
Unknown
Mission
Spacecraft
Bus & Motor
Unknown
Mass
Unknown
Launch date (UTC)
1993-06-16 (33 years ago)
Launch vehicle
Unknown
Launch site
Plesetsk Missile And Space Complex (PKMTR)
Object type
Payload
Rocket body
Debris
Shape & HBR
Unknown shape, 0.1 m
Radar Cross Section
Small (<0.1 m²)

Expand to show TLE details & history
Last TLE update: 8 hours ago

TLE from 8 hours ago
0 COSMOS 2251 DEB
1 33826U 93036BT  26120.07679515  .00004538  00000-0  10451-2 0  9997
2 33826  74.0629 149.4215 0081982 161.3990 230.2449 14.53573340897783
Epoch: 2026-04-30T01:50Z
TLE epoch observation values (Epoch: 2026-04-30T01:50:35.100Z)
Latitude
29.67228°
Longitude
-86.94029°
Altitude
754.876 km
Speed
7.46 km/s
True Right ascension
10h 34m 56s
True Declination
29° 31' 28"
Sunlit
Object was in daylight at epoch
Visualization orbit readout
Latitude
Unknown
Longitude
Unknown
Altitude
Unknown
Speed
Unknown
Apparent Right ascension
Unknown
Apparent Declination
Unknown
Sunlit
N/A
Visualization observer readout
Local Sidereal Time
17:27:47
Azimuth
Unknown
Elevation
Unknown
Doppler factor
Unknown
Orbital elements
Apogee altitude
769.727 km
Perigee altitude
653.48 km
Semi-major axis
7,089.741 km
Eccentricity
0.0082
Inclination
74.0629°
RAAN
149.4215°
Arg. of periapsis
161.399°
True anomaly
229.52739°
Mean anomaly
230.2449°
Eccentric anomaly
229.88568°
Mean motion
3.63578 °/min
Orbital period
99.02 mins
BSTAR
0.0010451
Loading maneuver chart data...
Computing Atmospheric mass density...

Documentation

Showing up to 5 results
|